Home   Weather   Havana   Past weeks

Flag for Cuba Past Weather in Havana, Cuba — Yesterday and Last 2 Weeks

77 °F

Passing clouds.

Feels Like: 79 °F
Forecast: N/A
Wind: 13 mph from Northeast

Location: Aeropuerto Jose Marti - Rancho-Boyeros - Habana

Current Time: Oct 22, 2016 at 7:41:05 PM

Latest Report: Oct 22, 2016 at 6:55 PM

Visibility: 6 mi

Pressure: 29.98 "Hg

Humidity: 61%

Dew Point: 63 °F

Location of HavanaLocation

Past Weather in Havana — Graph


Havana Temperature Yesterday

Maximum temperature yesterday: 86 °F (at 1:55 PM)
Minimum temperature yesterday: 63 °F (at 5:55 AM)
Average temperature yesterday: 73 °F

High & Low Weather Summary for the Past Weeks

High90 °F (Oct 8, 12:55 PM)94% (Oct 7, 8:55 PM)30.04 "Hg (Oct 7, 8:55 PM)
Low61 °F (Oct 22, 6:55 AM)46% (Oct 10, 3:55 PM)29.80 "Hg (Oct 7, 5:55 PM)
Average77 °F76%29.93 "Hg
* Reported Oct 7 5:55 PM — Oct 22 5:55 PM, Havana, Weather by CustomWeather, © 2016

Note: Actual official high and low records may vary slightly from our data, if they occured in-between our weather recording intervals... More about our weather records


Havana Weather History for the Previous 24 Hours

Scroll right to see more
Time TempWeatherWind HumidityBarometerVisibility
5:55 PM
Sat, Oct 22
79 °FPassing clouds.13 mph61%29.95 "Hg6 mi
4:55 PM81 °FPartly sunny.17 mph62%29.95 "Hg6 mi
3:55 PM81 °FPartly sunny.16 mph66%29.95 "Hg6 mi
2:55 PM84 °FPartly sunny.10 mph55%29.92 "Hg6 mi
1:55 PM84 °FScattered clouds.10 mph51%29.95 "Hg6 mi
12:55 PM84 °FScattered clouds.8 mph51%29.98 "Hg6 mi
11:55 AM84 °FScattered clouds.7 mph51%29.98 "Hg6 mi
10:55 AM82 °FPassing clouds.6 mph55%29.98 "Hg6 mi
9:55 AM79 °FPassing clouds.No wind70%29.98 "Hg6 mi
8:55 AM70 °FPassing clouds.1 mph88%29.95 "Hg6 mi
7:55 AM63 °FPassing clouds.No wind88%29.95 "Hg6 mi
6:55 AM61 °FPassing clouds.1 mph94%29.92 "Hg6 mi
5:55 AM63 °FPassing clouds.No wind88%29.92 "Hg5 mi
4:55 AM63 °FPassing clouds.No wind88%29.92 "Hg6 mi
3:55 AM63 °FPassing clouds.2 mph88%29.92 "Hg6 mi
2:55 AM63 °FPassing clouds.1 mph88%29.92 "Hg6 mi
1:55 AM63 °FPassing clouds.2 mph94%29.92 "Hg6 mi
12:55 AM64 °FPassing clouds.1 mph88%29.92 "Hg6 mi
11:55 PM
Fri, Oct 21
66 °FPassing clouds.2 mph83%29.92 "Hg6 mi
10:55 PM68 °FPassing clouds.5 mph83%29.92 "Hg6 mi
9:55 PM70 °FPassing clouds.3 mph78%29.89 "Hg6 mi
8:55 PM73 °FPassing clouds.7 mph69%29.89 "HgN/A
7:55 PM75 °FPassing clouds.7 mph65%29.86 "HgN/A
Weather by CustomWeather, © 2016

See weather overviewHow to use our weather pages